Flag for U.S.A. Weather past 2 weeks in Portland, Maine, U.S.A.

Now
77 °F

Passing clouds.


Feels Like: 78 °F
Forecast: 61 / 72 °F
Wind: 14 mph from West

Location: Portland - Portland International Jetport

Current Time: Jul 2, 2015 at 3:21:50 PM

Latest Report: Jul 2, 2015 at 2:51 PM


Visibility: 10 mi

Pressure: 29.84 "Hg

Humidity: 42%

Dew point: 52 °F

Location of PortlandLocation

Historic Weather in Portland — Graph

°F

Portland temperature yesterday

Maximum temperature yesterday: 68 °F (at 6:51 PM)
Minimum temperature yesterday: 61 °F (at 4:51 AM)
Average temperature yesterday: 63 °F

Past Weeks' High & Low Weather Summary

 TemperatureHumidityPressure
High81 °F (Jun 24, 2:51 PM)100% (Jun 21, 4:03 AM)30.19 "Hg (Jun 21, 4:03 AM)
Low49 °F (Jun 27, 3:51 AM)28% (Jun 24, 2:51 PM)29.65 "Hg (Jun 23, 7:51 PM)
Average64 °F77%29.93 "Hg
* Reported Jun 17 1:51 PM — Jul 2 1:51 PM, Portland, Weather by CustomWeather, © 2015

Note: Actual official high and low records may vary slightly from our data, if they occured in-between our weather recording intervals... More about our weather records

Advertising

Portland weather history for previous 24 hours

 ConditionsComfort  
Time TempWeatherWind HumidityBarometerVisibility
1:51 PM
Thu, Jul 2
75 °FScattered clouds.18 mph45%29.83 "Hg10 mi
12:51 PM76 °FScattered clouds.17 mph47%29.84 "Hg10 mi
11:51 AM73 °FScattered clouds.14 mph51%29.84 "Hg10 mi
10:51 AM72 °FScattered clouds.16 mph55%29.83 "Hg10 mi
9:51 AM72 °FPartly sunny.12 mph61%29.82 "Hg10 mi
8:51 AM69 °FBroken clouds.9 mph70%29.81 "Hg10 mi
7:51 AM66 °FPartly sunny.12 mph78%29.81 "Hg10 mi
6:51 AM64 °FPartly sunny.10 mph84%29.80 "Hg10 mi
5:51 AM62 °FPassing clouds.8 mph86%29.78 "Hg10 mi
4:51 AM62 °FPassing clouds.7 mph86%29.76 "Hg10 mi
3:51 AM62 °FClear.7 mph90%29.76 "Hg10 mi
2:51 AM64 °FClear.8 mph84%29.74 "Hg10 mi
1:51 AM64 °FClear.8 mph90%29.73 "Hg10 mi
12:51 AM65 °FClear.8 mph91%29.72 "Hg10 mi
11:51 PM
Wed, Jul 1
65 °FClear.7 mph94%29.72 "Hg10 mi
10:51 PM65 °FClear.7 mph94%29.71 "Hg10 mi
9:51 PM62 °FClear.No wind96%29.71 "Hg8 mi
8:51 PM65 °FLight rain. Scattered clouds.No wind94%29.70 "Hg9 mi
7:51 PM66 °FScattered clouds.5 mph93%29.70 "Hg9 mi
6:51 PM68 °FScattered clouds.6 mph90%29.69 "Hg10 mi
6:00 PM66 °FScattered clouds.7 mph93%29.69 "Hg9 mi
4:51 PM65 °FFog.7 mph94%29.70 "Hg3 mi
3:51 PM63 °FFog.13 mph97%29.71 "Hg3 mi
Weather by CustomWeather, © 2015

See weather overviewHow to use our weather pages